| time (UTC) | temp F | wind direction | speed MPH | gust MPH | rain 1hr in | rain 24hr in | rain mn in | humidity % | barometer mb |
| 20260903023540 | 66 | 118 | 1.0 | 6.0 | 0.00 | 0.08 | 0.08 | 63 | 1009.3 |
| 20260903023034 | 66 | 120 | 2.0 | 6.0 | 0.00 | 0.08 | 0.08 | 62 | 1009.4 |
| 20260903022522 | 66 | 90 | 0.0 | 6.0 | 0.00 | 0.08 | 0.08 | 61 | 1009.4 |
| 20260903022032 | 66 | 100 | 2.0 | 6.0 | 0.00 | 0.08 | 0.08 | 60 | 1009.4 |
| 20260903021527 | 66 | 107 | 0.0 | 6.0 | 0.00 | 0.08 | 0.08 | 59 | 1009.5 |
| 20260903021018 | 66 | 116 | 0.0 | 5.0 | 0.00 | 0.08 | 0.08 | 59 | 1009.4 |
| 20260903020530 | 66 | 87 | 2.0 | 4.0 | 0.00 | 0.08 | 0.08 | 59 | 1009.4 |
| 20260903020044 | 66 | 82 | 1.0 | 4.0 | 0.00 | 0.08 | 0.08 | 58 | 1009.2 |
| 20260903015539 | 66 | 111 | 2.0 | 4.0 | 0.00 | 0.08 | 0.08 | 59 | 1009.3 |
| 20260903015021 | 66 | 124 | 0.0 | 8.0 | 0.00 | 0.08 | 0.08 | 59 | 1009.3 |
| 20260903014537 | 67 | 88 | 1.0 | 11.0 | 0.00 | 0.08 | 0.08 | 57 | 1009.3 |
| 20260903014027 | 67 | 66 | 6.0 | 11.0 | 0.00 | 0.08 | 0.08 | 57 | 1009.3 |
| 20260903013520 | 67 | 76 | 5.0 | 9.0 | 0.00 | 0.08 | 0.08 | 57 | 1009.1 |
| 20260903013034 | 67 | 67 | 2.0 | 6.0 | 0.00 | 0.08 | 0.08 | 57 | 1009.3 |
| 20260903012525 | 67 | 108 | 0.0 | 3.0 | 0.00 | 0.08 | 0.08 | 58 | 1009.4 |
| 20260903012040 | 67 | 106 | 0.0 | 6.0 | 0.00 | 0.08 | 0.08 | 57 | 1009.4 |
| 20260903011530 | 67 | 106 | 3.0 | 6.0 | 0.00 | 0.08 | 0.08 | 56 | 1009.4 |
| 20260903011018 | 67 | 114 | 2.0 | 8.0 | 0.00 | 0.08 | 0.08 | 56 | 1009.4 |
| 20260903010529 | 67 | 77 | 2.0 | 8.0 | 0.00 | 0.08 | 0.08 | 56 | 1009.4 |
| 20260903010025 | 67 | 60 | 2.0 | 8.0 | 0.00 | 0.08 | 0.08 | 56 | 1009.5 |
| 20260903005536 | 67 | 103 | 3.0 | 6.0 | 0.00 | 0.08 | 0.08 | 57 | 1009.6 |
| 20260903005024 | 67 | 83 | 2.0 | 7.0 | 0.00 | 0.08 | 0.08 | 57 | 1009.7 |
| 20260903004519 | 67 | 89 | 2.0 | 8.0 | 0.00 | 0.08 | 0.08 | 57 | 1009.7 |
| 20260903004031 | 67 | 79 | 3.0 | 9.0 | 0.00 | 0.08 | 0.08 | 57 | 1009.8 |
| 20260903003521 | 67 | 90 | 5.0 | 9.0 | 0.00 | 0.08 | 0.08 | 57 | 1009.9 |
| 20260903003036 | 67 | 98 | 5.0 | 9.0 | 0.00 | 0.08 | 0.08 | 58 | 1009.8 |
| 20260903002527 | 68 | 80 | 4.0 | 8.0 | 0.00 | 0.08 | 0.08 | 57 | 1009.9 |
| 20260903002019 | 68 | 115 | 1.0 | 3.0 | 0.00 | 0.08 | 0.08 | 57 | 1009.9 |
| 20260903001534 | 68 | 106 | 0.0 | 1.0 | 0.00 | 0.08 | 0.08 | 59 | 1010.0 |
| 20260903001028 | 68 | 190 | 0.0 | 1.0 | 0.00 | 0.08 | 0.08 | 60 | 1010.1 |
| 20260903000534 | 67 | 167 | 0.0 | 1.0 | 0.00 | 0.08 | 0.08 | 59 | 1010.2 |
| 20260903000028 | 67 | 180 | 0.0 | 3.0 | 0.00 | 0.08 | 0.08 | 60 | 1010.2 |
| 20260902235520 | 67 | 169 | 0.0 | 3.0 | 0.00 | 0.08 | 0.08 | 60 | 1010.3 |
| 20260902235029 | 67 | 132 | 0.0 | 1.0 | 0.00 | 0.08 | 0.08 | 59 | 1010.3 |
| 20260902234523 | 67 | 150 | 0.0 | 1.0 | 0.00 | 0.08 | 0.08 | 58 | 1010.3 |
| 20260902234034 | 67 | 118 | 0.0 | 6.0 | 0.00 | 0.08 | 0.08 | 57 | 1010.2 |
| 20260902233524 | 66 | 171 | 0.0 | 6.0 | 0.00 | 0.08 | 0.08 | 57 | 1010.3 |
| 20260902233020 | 66 | 119 | 1.0 | 7.0 | 0.00 | 0.08 | 0.08 | 57 | 1010.2 |
| 20260902232528 | 66 | 102 | 1.0 | 8.0 | 0.00 | 0.08 | 0.08 | 58 | 1010.2 |
| 20260902232017 | 66 | 121 | 3.0 | 8.0 | 0.00 | 0.08 | 0.08 | 58 | 1010.3 |
| 20260902231535 | 67 | 131 | 0.0 | 7.0 | 0.00 | 0.08 | 0.08 | 59 | 1010.3 |
| 20260902231025 | 67 | 115 | 0.0 | 7.0 | 0.00 | 0.08 | 0.08 | 57 | 1010.3 |
| 20260902230542 | 67 | 107 | 1.0 | 4.0 | 0.00 | 0.08 | 0.08 | 57 | 1010.5 |
| 20260902230035 | 67 | 192 | 0.0 | 4.0 | 0.00 | 0.08 | 0.08 | 59 | 1010.5 |
| 20260902225521 | 67 | 202 | 0.0 | 4.0 | 0.00 | 0.08 | 0.08 | 58 | 1010.7 |
| 20260902225035 | 67 | 164 | 1.0 | 4.0 | 0.00 | 0.08 | 0.08 | 58 | 1010.6 |
| 20260902224527 | 67 | 178 | 0.0 | 4.0 | 0.00 | 0.08 | 0.08 | 60 | 1010.7 |
| 20260902224018 | 67 | 92 | 1.0 | 3.0 | 0.00 | 0.08 | 0.08 | 59 | 1010.7 |
| 20260902223629 | 67 | 174 | 0.0 | 3.0 | 0.00 | 0.08 | 0.08 | 60 | 1010.8 |
| 20260902223029 | 66 | 181 | 1.0 | 4.0 | 0.00 | 0.08 | 0.08 | 60 | 1010.7 |
| 20260902222534 | 66 | 243 | 1.0 | 4.0 | 0.00 | 0.08 | 0.08 | 61 | 1011.0 |
| 20260902222024 | 66 | 171 | 0.0 | 1.0 | 0.00 | 0.08 | 0.08 | 63 | 1011.0 |
| 20260902221526 | 66 | 243 | 0.0 | 0.0 | 0.00 | 0.08 | 0.08 | 60 | 1011.0 |
| 20260902221029 | 66 | 124 | 0.0 | 4.0 | 0.00 | 0.08 | 0.08 | 63 | 1010.9 |
| 20260902220541 | 65 | 161 | 0.0 | 4.0 | 0.00 | 0.08 | 0.08 | 64 | 1011.1 |
| 20260902220035 | 65 | 126 | 0.0 | 1.0 | 0.00 | 0.08 | 0.08 | 64 | 1011.1 |
| 20260902215530 | 65 | 225 | 0.0 | 1.0 | 0.00 | 0.08 | 0.08 | 65 | 1011.2 |
| 20260902215019 | 65 | 149 | 0.0 | 3.0 | 0.00 | 0.08 | 0.08 | 64 | 1011.3 |
| 20260902214535 | 65 | 139 | 0.0 | 3.0 | 0.00 | 0.08 | 0.08 | 65 | 1011.3 |
| 20260902214026 | 64 | 105 | 0.0 | 2.0 | 0.00 | 0.08 | 0.08 | 66 | 1011.3 |
| 20260902213537 | 64 | 159 | 0.0 | 2.0 | 0.00 | 0.08 | 0.08 | 65 | 1011.4 |
| 20260902213034 | 64 | 246 | 0.0 | 1.0 | 0.00 | 0.08 | 0.08 | 66 | 1011.4 |
| 20260902212522 | 64 | 186 | 0.0 | 1.0 | 0.00 | 0.08 | 0.08 | 65 | 1011.5 |
| 20260902212032 | 64 | 107 | 0.0 | 1.0 | 0.00 | 0.08 | 0.08 | 66 | 1011.5 |
| 20260902211529 | 64 | 120 | 0.0 | 1.0 | 0.00 | 0.08 | 0.08 | 68 | 1011.6 |
| 20260902211019 | 63 | 169 | 0.0 | 2.0 | 0.00 | 0.08 | 0.08 | 67 | 1011.7 |
| 20260902210527 | 63 | 163 | 0.0 | 2.0 | 0.00 | 0.08 | 0.08 | 69 | 1011.6 |
| 20260902210024 | 63 | 184 | 0.0 | 2.0 | 0.00 | 0.08 | 0.08 | 70 | 1011.7 |
| 20260902205534 | 63 | 149 | 0.0 | 2.0 | 0.00 | 0.08 | 0.08 | 70 | 1011.8 |
| 20260902205027 | 63 | 309 | 0.0 | 2.0 | 0.00 | 0.08 | 0.08 | 70 | 1011.8 |
| 20260902204523 | 62 | 125 | 0.0 | 2.0 | 0.00 | 0.08 | 0.08 | 73 | 1011.7 |
| 20260902204032 | 62 | 113 | 0.0 | 2.0 | 0.00 | 0.08 | 0.08 | 73 | 1011.9 |
| 20260902203525 | 62 | 127 | 0.0 | 2.0 | 0.00 | 0.08 | 0.08 | 73 | 1012.0 |
| 20260902203018 | 61 | 84 | 0.0 | 3.0 | 0.00 | 0.08 | 0.08 | 74 | 1012.1 |
| 20260902202529 | 61 | 128 | 0.0 | 3.0 | 0.01 | 0.08 | 0.08 | 75 | 1012.2 |
| 20260902202019 | 61 | 132 | 0.0 | 4.0 | 0.01 | 0.08 | 0.08 | 76 | 1012.2 |
| 20260902201537 | 60 | 155 | 0.0 | 4.0 | 0.01 | 0.08 | 0.08 | 76 | 1012.1 |
| 20260902201026 | 60 | 51 | 0.0 | 2.0 | 0.01 | 0.08 | 0.08 | 77 | 1012.1 |
| 20260902200534 | 59 | 100 | 0.0 | 2.0 | 0.01 | 0.08 | 0.08 | 80 | 1012.2 |
| 20260902200033 | 59 | 146 | 0.0 | 1.0 | 0.01 | 0.08 | 0.08 | 80 | 1012.0 |
| 20260902195518 | 59 | 184 | 0.0 | 2.0 | 0.01 | 0.08 | 0.08 | 82 | 1012.2 |
| 20260902195032 | 59 | 216 | 0.0 | 3.0 | 0.01 | 0.08 | 0.08 | 82 | 1012.4 |
| 20260902194530 | 58 | 209 | 0.0 | 3.0 | 0.02 | 0.08 | 0.08 | 82 | 1012.4 |
| 20260902194019 | 58 | 146 | 0.0 | 6.0 | 0.03 | 0.08 | 0.08 | 84 | 1012.6 |
| 20260902193528 | 57 | 96 | 0.0 | 7.0 | 0.04 | 0.08 | 0.08 | 83 | 1012.6 |
| 20260902193025 | 57 | 94 | 1.0 | 7.0 | 0.05 | 0.08 | 0.08 | 84 | 1012.7 |
| 20260902192537 | 57 | 119 | 0.0 | 2.0 | 0.05 | 0.07 | 0.07 | 85 | 1012.7 |
| 20260902192022 | 57 | 103 | 0.0 | 3.0 | 0.06 | 0.07 | 0.07 | 84 | 1012.8 |
| 20260902191518 | 57 | 122 | 0.0 | 3.0 | 0.06 | 0.07 | 0.07 | 84 | 1012.8 |
| 20260902191028 | 57 | 142 | 0.0 | 3.0 | 0.07 | 0.07 | 0.07 | 83 | 1012.8 |
| 20260902190537 | 56 | 214 | 0.0 | 2.0 | 0.07 | 0.07 | 0.07 | 84 | 1012.8 |
| 20260902190034 | 56 | 10 | 0.0 | 3.0 | 0.07 | 0.07 | 0.07 | 85 | 1013.0 |
| 20260902185522 | 56 | 69 | 0.0 | 3.0 | 0.07 | 0.07 | 0.07 | 85 | 1013.0 |
| 20260902185033 | 56 | 96 | 0.0 | 7.0 | 0.07 | 0.07 | 0.07 | 84 | 1012.9 |
| 20260902184529 | 56 | 180 | 1.0 | 7.0 | 0.06 | 0.06 | 0.06 | 82 | 1013.1 |
| 20260902184019 | 57 | 219 | 0.0 | 4.0 | 0.05 | 0.05 | 0.05 | 82 | 1013.1 |
| 20260902183528 | 57 | 62 | 0.0 | 4.0 | 0.04 | 0.04 | 0.04 | 80 | 1012.9 |
| 20260902182518 | 57 | 355 | 1.0 | 8.0 | 0.02 | 0.02 | 0.02 | 78 | 1012.4 |
| 20260902182029 | 58 | 188 | 4.0 | 8.0 | 0.01 | 0.01 | 0.01 | 77 | 1012.4 |
| 20260902181526 | 58 | 5 | 2.0 | 9.0 | 0.01 | 0.01 | 0.01 | 78 | 1012.4 |
| 20260902181036 | 58 | 104 | 1.0 | 9.0 | 0.00 | 0.00 | 0.00 | 75 | 1012.4 |
| 20260902180524 | 59 | 183 | 1.0 | 8.0 | 0.00 | 0.00 | 0.00 | 75 | 1012.4 |
| 20260902180021 | 59 | 146 | 2.0 | 9.0 | 0.00 | 0.00 | 0.00 | 75 | 1012.4 |
| 20260902175531 | 59 | 146 | 5.0 | 11.0 | 0.00 | 0.00 | 0.00 | 74 | 1012.3 |
| 20260902175019 | 59 | 166 | 8.0 | 11.0 | 0.00 | 0.00 | 0.00 | 72 | 1012.5 |
| 20260902174538 | 59 | 212 | 7.0 | 10.0 | 0.00 | 0.00 | 0.00 | 72 | 1012.5 |
| 20260902174030 | 59 | 183 | 6.0 | 10.0 | 0.00 | 0.00 | 0.00 | 71 | 1012.2 |
| 20260902173517 | 59 | 76 | 4.0 | 9.0 | 0.00 | 0.00 | 0.00 | 70 | 1011.9 |
| 20260902173043 | 59 | 5 | 2.0 | 8.0 | 0.00 | 0.00 | 0.00 | 71 | 1011.9 |
| 20260902172524 | 59 | 153 | 3.0 | 8.0 | 0.00 | 0.00 | 0.00 | 69 | 1011.8 |
| 20260902172018 | 59 | 209 | 4.0 | 8.0 | 0.00 | 0.00 | 0.00 | 70 | 1011.9 |
| 20260902171539 | 59 | 42 | 4.0 | 6.0 | 0.00 | 0.00 | 0.00 | 68 | 1011.9 |
| 20260902171023 | 59 | 164 | 1.0 | 5.0 | 0.00 | 0.00 | 0.00 | 70 | 1011.7 |
| 20260902170534 | 59 | 211 | 1.0 | 6.0 | 0.00 | 0.00 | 0.00 | 69 | 1011.6 |
| 20260902170028 | 59 | 219 | 4.0 | 6.0 | 0.00 | 0.00 | 0.00 | 69 | 1011.6 |
| 20260902165537 | 59 | 213 | 3.0 | 8.0 | 0.00 | 0.00 | 0.00 | 69 | 1011.8 |
| 20260902165026 | 59 | 217 | 3.0 | 8.0 | 0.00 | 0.00 | 0.00 | 70 | 1011.7 |
| 20260902164524 | 59 | 217 | 3.0 | 9.0 | 0.00 | 0.00 | 0.00 | 70 | 1011.8 |
| 20260902164032 | 59 | 156 | 5.0 | 9.0 | 0.00 | 0.00 | 0.00 | 68 | 1011.8 |
| 20260902163522 | 59 | 89 | 6.0 | 10.0 | 0.00 | 0.00 | 0.00 | 69 | 1011.7 |
| 20260902163021 | 59 | 177 | 5.0 | 10.0 | 0.00 | 0.00 | 0.00 | 69 | 1011.5 |
| 20260902162529 | 59 | 198 | 6.0 | 10.0 | 0.00 | 0.00 | 0.00 | 68 | 1011.4 |
| 20260902162019 | 59 | 213 | 6.0 | 11.0 | 0.00 | 0.00 | 0.00 | 68 | 1011.4 |
| 20260902161540 | 59 | 205 | 6.0 | 11.0 | 0.00 | 0.00 | 0.00 | 68 | 1011.5 |
| 20260902161032 | 59 | 202 | 6.0 | 12.0 | 0.00 | 0.00 | 0.00 | 69 | 1011.5 |
| 20260902160519 | 59 | 191 | 6.0 | 15.0 | 0.00 | 0.00 | 0.00 | 69 | 1011.6 |
| 20260902160043 | 59 | 148 | 7.0 | 14.0 | 0.00 | 0.00 | 0.00 | 68 | 1011.5 |
| 20260902155525 | 59 | 22 | 3.0 | 12.0 | 0.00 | 0.00 | 0.00 | 69 | 1011.5 |
| 20260902155040 | 59 | 211 | 4.0 | 12.0 | 0.00 | 0.00 | 0.00 | 69 | 1011.6 |
| 20260902154534 | 59 | 341 | 8.0 | 10.0 | 0.00 | 0.00 | 0.00 | 69 | 1011.6 |
| 20260902154021 | 59 | 223 | 5.0 | 14.0 | 0.00 | 0.00 | 0.00 | 70 | 1011.5 |
| 20260902153531 | 59 | 197 | 9.0 | 17.0 | 0.00 | 0.00 | 0.00 | 68 | 1011.4 |
| 20260902153032 | 59 | 186 | 11.0 | 17.0 | 0.00 | 0.00 | 0.00 | 69 | 1011.4 |
| 20260902152538 | 60 | 182 | 7.0 | 13.0 | 0.00 | 0.00 | 0.00 | 68 | 1011.3 |
| 20260902152156 | 60 | 175 | 7.0 | 10.0 | 0.00 | 0.00 | 0.00 | 69 | 1011.3 |
| 20260902151532 | 60 | 173 | 6.0 | 9.0 | 0.00 | 0.00 | 0.00 | 68 | 1011.1 |
| 20260902151029 | 60 | 60 | 0.0 | 4.0 | 0.00 | 0.00 | 0.00 | 66 | 1011.2 |
| 20260902150534 | 59 | 199 | 0.0 | 4.0 | 0.00 | 0.00 | 0.00 | 66 | 1011.1 |
| 20260902150030 | 59 | 215 | 1.0 | 5.0 | 0.00 | 0.00 | 0.00 | 66 | 1011.2 |
| 20260902145520 | 59 | 191 | 2.0 | 5.0 | 0.00 | 0.00 | 0.00 | 66 | 1011.2 |
| 20260902145031 | 59 | 182 | 2.0 | 4.0 | 0.00 | 0.00 | 0.00 | 65 | 1011.1 |
| 20260902144526 | 59 | 195 | 0.0 | 2.0 | 0.00 | 0.00 | 0.00 | 67 | 1010.9 |
| 20260902144036 | 59 | 165 | 0.0 | 4.0 | 0.00 | 0.00 | 0.00 | 68 | 1010.7 |
| 20260902143525 | 59 | 229 | 1.0 | 6.0 | 0.00 | 0.00 | 0.00 | 66 | 1010.7 |
| 20260902143020 | 59 | 252 | 3.0 | 6.0 | 0.00 | 0.00 | 0.00 | 67 | 1010.6 |
| 20260902142531 | 59 | 171 | 2.0 | 9.0 | 0.00 | 0.00 | 0.00 | 69 | 1010.8 |
| 20260902142022 | 59 | 203 | 5.0 | 11.0 | 0.00 | 0.00 | 0.00 | 68 | 1010.9 |
| 20260902141535 | 59 | 194 | 7.0 | 11.0 | 0.00 | 0.00 | 0.00 | 69 | 1010.9 |
| 20260902141027 | 58 | 49 | 6.0 | 10.0 | 0.00 | 0.00 | 0.00 | 68 | 1010.8 |
| 20260902140532 | 58 | 132 | 6.0 | 13.0 | 0.00 | 0.00 | 0.00 | 69 | 1010.8 |
| 20260902140035 | 58 | 175 | 6.0 | 17.0 | 0.00 | 0.00 | 0.00 | 69 | 1010.8 |
| 20260902135524 | 58 | 28 | 6.0 | 17.0 | 0.00 | 0.00 | 0.00 | 70 | 1010.6 |
| 20260902135031 | 58 | 203 | 9.0 | 13.0 | 0.00 | 0.00 | 0.00 | 70 | 1010.6 |
| 20260902134530 | 59 | 169 | 5.0 | 14.0 | 0.00 | 0.00 | 0.00 | 69 | 1010.5 |
| 20260902134037 | 59 | 88 | 9.0 | 14.0 | 0.00 | 0.00 | 0.00 | 70 | 1010.3 |
| 20260902133524 | 59 | 154 | 8.0 | 17.0 | 0.00 | 0.00 | 0.00 | 68 | 1010.2 |
| 20260902133020 | 59 | 190 | 8.0 | 17.0 | 0.00 | 0.00 | 0.00 | 68 | 1010.1 |
| 20260902132531 | 59 | 204 | 7.0 | 13.0 | 0.00 | 0.00 | 0.00 | 68 | 1010.1 |
| 20260902132021 | 59 | 155 | 6.0 | 14.0 | 0.00 | 0.00 | 0.00 | 66 | 1010.1 |
| 20260902131538 | 59 | 155 | 7.0 | 15.0 | 0.00 | 0.00 | 0.00 | 68 | 1010.1 |
| 20260902131030 | 59 | 18 | 8.0 | 15.0 | 0.00 | 0.00 | 0.00 | 69 | 1010.0 |
| 20260902130538 | 59 | 138 | 7.0 | 13.0 | 0.00 | 0.00 | 0.00 | 67 | 1010.1 |
| 20260902130031 | 59 | 171 | 7.0 | 11.0 | 0.00 | 0.00 | 0.00 | 66 | 1010.0 |
| 20260902125519 | 60 | 197 | 5.0 | 14.0 | 0.00 | 0.00 | 0.00 | 68 | 1009.9 |
| 20260902125034 | 60 | 213 | 3.0 | 12.0 | 0.00 | 0.00 | 0.00 | 67 | 1009.8 |
| 20260902124531 | 60 | 342 | 4.0 | 9.0 | 0.00 | 0.00 | 0.00 | 67 | 1009.6 |
| 20260902124019 | 60 | 53 | 4.0 | 6.0 | 0.00 | 0.00 | 0.00 | 66 | 1009.5 |
| 20260902123532 | 60 | 69 | 2.0 | 7.0 | 0.00 | 0.00 | 0.00 | 67 | 1009.5 |
| 20260902123029 | 60 | 208 | 3.0 | 8.0 | 0.00 | 0.00 | 0.00 | 66 | 1009.5 |
| 20260902122538 | 60 | 182 | 5.0 | 8.0 | 0.00 | 0.00 | 0.00 | 65 | 1009.3 |
| 20260902122027 | 60 | 189 | 3.0 | 6.0 | 0.00 | 0.00 | 0.00 | 67 | 1009.3 |
| 20260902121524 | 60 | 360 | 1.0 | 7.0 | 0.00 | 0.00 | 0.00 | 66 | 1009.2 |
| 20260902121032 | 60 | 210 | 4.0 | 7.0 | 0.00 | 0.00 | 0.00 | 64 | 1009.3 |
| 20260902120522 | 60 | 200 | 2.0 | 7.0 | 0.00 | 0.00 | 0.00 | 65 | 1009.3 |
| 20260902120018 | 60 | 331 | 1.0 | 5.0 | 0.00 | 0.00 | 0.00 | 66 | 1009.2 |
| 20260902115530 | 60 | 92 | 1.0 | 5.0 | 0.00 | 0.00 | 0.00 | 65 | 1009.2 |
| 20260902115036 | 60 | 190 | 0.0 | 4.0 | 0.00 | 0.00 | 0.00 | 63 | 1009.3 |
| 20260902114548 | 60 | 309 | 1.0 | 4.0 | 0.00 | 0.00 | 0.00 | 62 | 1009.2 |
| 20260902114030 | 61 | 9 | 0.0 | 6.0 | 0.00 | 0.00 | 0.00 | 64 | 1009.2 |
| 20260902113537 | 61 | 136 | 1.0 | 6.0 | 0.00 | 0.00 | 0.00 | 65 | 1009.2 |
| 20260902113032 | 61 | 178 | 3.0 | 7.0 | 0.00 | 0.00 | 0.00 | 63 | 1009.1 |
| 20260902112524 | 61 | 182 | 3.0 | 8.0 | 0.00 | 0.00 | 0.00 | 64 | 1009.2 |
| 20260902112033 | 61 | 221 | 1.0 | 6.0 | 0.00 | 0.00 | 0.00 | 66 | 1009.2 |
| 20260902111540 | 61 | 21 | 0.0 | 6.0 | 0.00 | 0.00 | 0.00 | 66 | 1009.0 |
| 20260902111021 | 61 | 188 | 0.0 | 6.0 | 0.00 | 0.00 | 0.00 | 71 | 1009.1 |
| 20260902110530 | 59 | 192 | 2.0 | 5.0 | 0.00 | 0.00 | 0.00 | 76 | 1009.0 |
| 20260902110050 | 58 | 177 | 0.0 | 0.0 | 0.00 | 0.00 | 0.00 | 87 | 1009.1 |
| 20260902105536 | 58 | 317 | 0.0 | 1.0 | 0.00 | 0.00 | 0.00 | 86 | 1009.0 |
| 20260902105035 | 58 | 250 | 0.0 | 3.0 | 0.00 | 0.00 | 0.00 | 85 | 1009.2 |
| 20260902104527 | 59 | 244 | 0.0 | 1.0 | 0.00 | 0.00 | 0.00 | 84 | 1009.1 |
| 20260902104032 | 59 | 253 | 0.0 | 2.0 | 0.00 | 0.00 | 0.00 | 82 | 1009.0 |
| 20260902103527 | 59 | 227 | 0.0 | 6.0 | 0.00 | 0.00 | 0.00 | 82 | 1009.0 |
| 20260902103021 | 59 | 107 | 2.0 | 6.0 | 0.00 | 0.00 | 0.00 | 82 | 1009.0 |
| 20260902102535 | 59 | 65 | 2.0 | 4.0 | 0.00 | 0.00 | 0.00 | 83 | 1009.2 |
| 20260902102023 | 59 | 21 | 2.0 | 4.0 | 0.00 | 0.00 | 0.00 | 83 | 1009.1 |
| 20260902101519 | 59 | 50 | 1.0 | 4.0 | 0.00 | 0.00 | 0.00 | 83 | 1009.2 |
| 20260902101028 | 60 | 5 | 0.0 | 3.0 | 0.00 | 0.00 | 0.00 | 83 | 1009.2 |
| 20260902100544 | 60 | 34 | 0.0 | 2.0 | 0.00 | 0.00 | 0.00 | 82 | 1009.1 |
| 20260902100035 | 60 | 229 | 0.0 | 2.0 | 0.00 | 0.00 | 0.00 | 84 | 1009.1 |
| 20260902095521 | 60 | 187 | 0.0 | 0.0 | 0.00 | 0.00 | 0.00 | 85 | 1009.2 |
| 20260902095032 | 60 | 5 | 0.0 | 7.0 | 0.00 | 0.00 | 0.00 | 86 | 1009.3 |
| 20260902094537 | 59 | 189 | 0.0 | 7.0 | 0.00 | 0.00 | 0.00 | 87 | 1009.2 |
| 20260902094037 | 59 | 207 | 2.0 | 5.0 | 0.00 | 0.00 | 0.00 | 86 | 1009.3 |
| 20260902093528 | 58 | 236 | 0.0 | 0.0 | 0.00 | 0.00 | 0.00 | 86 | 1009.0 |
| 20260902093025 | 58 | 237 | 0.0 | 0.0 | 0.00 | 0.00 | 0.00 | 85 | 1009.1 |
| 20260902092532 | 58 | 237 | 0.0 | 1.0 | 0.00 | 0.00 | 0.00 | 85 | 1009.0 |
| 20260902092029 | 58 | 237 | 0.0 | 1.0 | 0.00 | 0.00 | 0.00 | 86 | 1009.2 |
| 20260902091525 | 58 | 237 | 0.0 | 1.0 | 0.00 | 0.00 | 0.00 | 84 | 1009.2 |
| 20260902091033 | 58 | 214 | 0.0 | 0.0 | 0.00 | 0.00 | 0.00 | 83 | 1009.1 |
| 20260902090525 | 58 | 214 | 0.0 | 0.0 | 0.00 | 0.00 | 0.00 | 83 | 1009.1 |
| 20260902090022 | 58 | 294 | 0.0 | 0.0 | 0.00 | 0.00 | 0.00 | 83 | 1009.2 |
| 20260902085530 | 57 | 294 | 0.0 | 2.0 | 0.00 | 0.00 | 0.00 | 84 | 1009.3 |
| 20260902085020 | 57 | 252 | 0.0 | 5.0 | 0.00 | 0.00 | 0.00 | 83 | 1009.3 |
| 20260902084541 | 57 | 258 | 2.0 | 5.0 | 0.00 | 0.00 | 0.00 | 83 | 1009.2 |
| 20260902084024 | 57 | 255 | 2.0 | 3.0 | 0.00 | 0.00 | 0.00 | 84 | 1009.2 |
| 20260902083538 | 57 | 228 | 0.0 | 0.0 | 0.00 | 0.00 | 0.00 | 84 | 1009.3 |
| 20260902083031 | 57 | 265 | 0.0 | 0.0 | 0.00 | 0.00 | 0.00 | 83 | 1009.1 |
| 20260902082520 | 58 | 263 | 0.0 | 0.0 | 0.00 | 0.00 | 0.00 | 83 | 1009.2 |
| 20260902082030 | 58 | 261 | 0.0 | 0.0 | 0.00 | 0.00 | 0.00 | 82 | 1009.2 |
| 20260902081526 | 58 | 263 | 0.0 | 2.0 | 0.00 | 0.00 | 0.00 | 83 | 1009.3 |
| 20260902081038 | 59 | 257 | 0.0 | 2.0 | 0.00 | 0.00 | 0.00 | 83 | 1009.3 |
| 20260902080527 | 60 | 232 | 0.0 | 2.0 | 0.00 | 0.00 | 0.00 | 83 | 1009.3 |
| 20260902080025 | 59 | 244 | 0.0 | 0.0 | 0.00 | 0.00 | 0.00 | 82 | 1009.3 |
| 20260902075537 | 60 | 244 | 0.0 | 0.0 | 0.00 | 0.00 | 0.00 | 82 | 1009.3 |
| 20260902075023 | 59 | 265 | 0.0 | 0.0 | 0.00 | 0.00 | 0.00 | 82 | 1009.2 |
| 20260902074519 | 59 | 263 | 0.0 | 0.0 | 0.00 | 0.00 | 0.00 | 81 | 1009.1 |
| 20260902074031 | 59 | 235 | 0.0 | 0.0 | 0.00 | 0.00 | 0.00 | 81 | 1009.1 |
| 20260902073520 | 59 | 235 | 0.0 | 0.0 | 0.00 | 0.00 | 0.00 | 81 | 1009.1 |
| 20260902073037 | 59 | 235 | 0.0 | 0.0 | 0.00 | 0.00 | 0.00 | 81 | 1009.1 |
| 20260902072525 | 59 | 163 | 0.0 | 0.0 | 0.00 | 0.00 | 0.00 | 80 | 1009.1 |
| 20260902072040 | 59 | 244 | 0.0 | 0.0 | 0.00 | 0.00 | 0.00 | 81 | 1009.1 |
| 20260902071537 | 58 | 244 | 0.0 | 0.0 | 0.00 | 0.00 | 0.00 | 81 | 1008.9 |
| 20260902071023 | 59 | 244 | 0.0 | 0.0 | 0.00 | 0.00 | 0.00 | 81 | 1008.9 |
| 20260902070536 | 59 | 238 | 0.0 | 0.0 | 0.00 | 0.00 | 0.00 | 81 | 1009.0 |
| 20260902070032 | 59 | 215 | 0.0 | 0.0 | 0.00 | 0.00 | 0.00 | 82 | 1009.1 |
| 20260902065520 | 60 | 280 | 0.0 | 0.0 | 0.00 | 0.00 | 0.00 | 81 | 1009.1 |
| 20260902065032 | 60 | 280 | 0.0 | 0.0 | 0.00 | 0.00 | 0.00 | 79 | 1009.1 |
| 20260902064532 | 60 | 280 | 0.0 | 0.0 | 0.00 | 0.00 | 0.00 | 77 | 1009.2 |
| 20260902064036 | 60 | 280 | 0.0 | 2.0 | 0.00 | 0.00 | 0.00 | 75 | 1009.2 |
| 20260902063526 | 59 | 269 | 0.0 | 3.0 | 0.00 | 0.00 | 0.00 | 77 | 1009.2 |
| 20260902063030 | 60 | 250 | 2.0 | 5.0 | 0.00 | 0.00 | 0.00 | 78 | 1009.4 |
| 20260902062530 | 60 | 265 | 1.0 | 5.0 | 0.00 | 0.00 | 0.00 | 76 | 1009.3 |
| 20260902062021 | 60 | 244 | 1.0 | 7.0 | 0.00 | 0.00 | 0.00 | 76 | 1009.2 |
| 20260902061525 | 60 | 281 | 2.0 | 7.0 | 0.00 | 0.00 | 0.00 | 75 | 1009.1 |
| 20260902061029 | 60 | 224 | 3.0 | 5.0 | 0.00 | 0.00 | 0.00 | 76 | 1009.1 |
| 20260902060517 | 60 | 242 | 0.0 | 2.0 | 0.00 | 0.00 | 0.00 | 76 | 1009.2 |
| 20260902060037 | 60 | 263 | 0.0 | 0.0 | 0.00 | 0.00 | 0.00 | 76 | 1009.2 |
| 20260902055528 | 61 | 247 | 0.0 | 4.0 | 0.00 | 0.00 | 0.00 | 76 | 1009.1 |
| 20260902055037 | 61 | 261 | 0.0 | 4.0 | 0.00 | 0.00 | 0.00 | 76 | 1009.3 |
| 20260902054544 | 62 | 250 | 0.0 | 2.0 | 0.00 | 0.00 | 0.00 | 78 | 1009.2 |
| 20260902054023 | 62 | 244 | 0.0 | 0.0 | 0.00 | 0.00 | 0.00 | 77 | 1009.3 |
| 20260902053533 | 62 | 263 | 0.0 | 0.0 | 0.00 | 0.00 | 0.00 | 75 | 1009.4 |
| 20260902053027 | 61 | 263 | 0.0 | 1.0 | 0.00 | 0.00 | 0.00 | 75 | 1009.4 |
| 20260902052519 | 62 | 263 | 0.0 | 1.0 | 0.00 | 0.00 | 0.00 | 74 | 1009.6 |
| 20260902052028 | 62 | 259 | 0.0 | 0.0 | 0.00 | 0.00 | 0.00 | 74 | 1009.5 |
| 20260902051523 | 63 | 249 | 0.0 | 0.0 | 0.00 | 0.00 | 0.00 | 75 | 1009.6 |
| 20260902051033 | 63 | 253 | 0.0 | 0.0 | 0.00 | 0.00 | 0.00 | 78 | 1009.5 |
| 20260902050525 | 63 | 257 | 0.0 | 0.0 | 0.00 | 0.00 | 0.00 | 75 | 1009.6 |
| 20260902050020 | 64 | 254 | 0.0 | 0.0 | 0.00 | 0.00 | 0.00 | 71 | 1009.5 |
| 20260902045532 | 64 | 256 | 0.0 | 0.0 | 0.00 | 0.00 | 0.00 | 69 | 1009.4 |
| 20260902045024 | 64 | 255 | 0.0 | 0.0 | 0.00 | 0.00 | 0.00 | 69 | 1009.5 |
| 20260902044521 | 64 | 264 | 0.0 | 4.0 | 0.00 | 0.00 | 0.00 | 68 | 1009.4 |
| 20260902044032 | 64 | 255 | 0.0 | 4.0 | 0.00 | 0.00 | 0.00 | 69 | 1009.5 |
| 20260902043520 | 64 | 242 | 0.0 | 0.0 | 0.00 | 0.00 | 0.00 | 71 | 1009.4 |
| 20260902043041 | 64 | 259 | 0.0 | 2.0 | 0.00 | 0.00 | 0.00 | 69 | 1009.4 |
| 20260902042527 | 64 | 263 | 0.0 | 2.0 | 0.00 | 0.00 | 0.00 | 70 | 1009.3 |
| 20260902042039 | 64 | 242 | 0.0 | 4.0 | 0.00 | 0.00 | 0.00 | 70 | 1009.2 |
| 20260902041533 | 65 | 254 | 0.0 | 4.0 | 0.00 | 0.00 | 0.00 | 69 | 1009.2 |
| 20260902041023 | 66 | 215 | 0.0 | 0.0 | 0.00 | 0.00 | 0.00 | 69 | 1009.2 |
| 20260902040532 | 66 | 265 | 0.0 | 0.0 | 0.00 | 0.00 | 0.00 | 68 | 1009.2 |
| 20260902040027 | 67 | 252 | 0.0 | 0.0 | 0.00 | 0.00 | 0.00 | 68 | 1009.2 |
| 20260902035538 | 66 | 259 | 0.0 | 0.0 | 0.00 | 0.00 | 0.00 | 65 | 1009.2 |
| 20260902035126 | 67 | 259 | 0.0 | 0.0 | 0.00 | 0.00 | 0.00 | 68 | 1009.2 |
| 20260902034524 | 67 | 260 | 0.0 | 1.0 | 0.00 | 0.00 | 0.00 | 65 | 1009.2 |
| 20260902034038 | 67 | 273 | 0.0 | 1.0 | 0.00 | 0.00 | 0.00 | 64 | 1009.2 |
| 20260902033526 | 67 | 255 | 0.0 | 0.0 | 0.00 | 0.00 | 0.00 | 64 | 1009.1 |
| 20260902033024 | 67 | 261 | 0.0 | 3.0 | 0.00 | 0.00 | 0.00 | 66 | 1009.2 |
| 20260902032534 | 68 | 252 | 0.0 | 3.0 | 0.00 | 0.00 | 0.00 | 64 | 1009.2 |
| 20260902032023 | 69 | 251 | 2.0 | 4.0 | 0.00 | 0.00 | 0.00 | 61 | 1009.2 |
| 20260902031521 | 70 | 259 | 0.0 | 1.0 | 0.00 | 0.00 | 0.00 | 58 | 1009.1 |
| 20260902031029 | 70 | 269 | 0.0 | 2.0 | 0.00 | 0.00 | 0.00 | 62 | 1009.1 |
| 20260902030518 | 70 | 259 | 0.0 | 1.0 | 0.00 | 0.00 | 0.00 | 63 | 1009.1 |
| 20260902030034 | 71 | 88 | 0.0 | 0.0 | 0.00 | 0.00 | 0.00 | 56 | 1009.2 |
| 20260902025627 | 72 | 88 | 0.0 | 0.0 | 0.00 | 0.00 | 0.00 | 54 | 1009.2 |
| 20260902025035 | 72 | 86 | 0.0 | 0.0 | 0.00 | 0.00 | 0.00 | 52 | 1009.1 |
| 20260902024537 | 72 | 85 | 0.0 | 0.0 | 0.00 | 0.00 | 0.00 | 51 | 1009.1 |
| 20260902024024 | 72 | 252 | 0.0 | 0.0 | 0.00 | 0.00 | 0.00 | 53 | 1009.0 |